Location: Unspecified
(29.9680°N, 0.0000°E)
Time: 00:25:36
(UTC+00:00)

A-11 Canister half - Pass Details

Date: 27 June 2019
Orbit: 1526 x 1683 km, 47.3° (Epoch: 19 July)

Event Time Altitude Azimuth Distance (km) Brightness Sun altitude
Rises 11:22:32 0° 300° (WNW) 4,676 11.4 78.8°
Reaches altitude 10° 11:25:56 10° 291° (WNW) 3,696 11.0 79.4°
Maximum altitude 11:33:54 33° 232° (SW) 2,363 10.5 80.7°
Drops below altitude 10° 11:42:02 10° 172° (S) 3,755 11.3 81.9°
Sets 11:45:33 0° 163° (SSE) 4,760 11.7 82.3°
